User: anonymous
Location: Vancouver
(49.2500°N, 123.1330°W)
Time: 14:31:36
(UTC-07:00)
Language:

SO-67 - Orbit

View from above orbital plane
View from above orbital plane
View from above satellite
View from above satellite

Ground track
Ground track

The orbit data is extracted from the following two-line orbital elements,

1 35870U 09049F   14114.13502382  .00011869  00000-0  38391-3 0   825
2 35870 097.1649 137.0938 0000651 067.5633 008.4794 15.32205780255775
Epoch (UTC): 24 April 2014 03:14:26
Eccentricity: 0.0000651
inclination: 97.1649°
perigee height: 469 km
apogee height: 469 km
right ascension of ascending node: 137.0938°
argument of perigee: 67.5633°
revolutions per day: 15.32205780
mean anomaly at epoch: 8.4794°
orbit number at epoch: 25577

The dashed part of the orbit path shows where the satellite is in the earth's shadow,  

DLR